GW6055 Weather Reports


time (UTC)temp
C
wind
direction
speed
KPH
gust
KPH
rain 1hr
cm
rain 24hr
cm
rain mn
cm
humidity
%
barometer
mb
20260505153326 22 179 1.6 11.3 0.00 0.00 0.00 59 1016.0
20260505152823 22 260 3.2 3.2 0.00 0.00 0.00 55 1015.7
20260505152320 22 197 1.6 6.4 0.00 0.00 0.00 57 1016.0
20260505151819 21 262 6.4 9.7 0.00 0.00 0.00 57 1016.0
20260505151316 21 228 6.4 6.4 0.00 0.00 0.00 56 1016.0
20260505150813 21 183 1.6 6.4 0.00 0.00 0.00 57 1015.9
20260505150310 22 182 3.2 4.8 0.00 0.00 0.00 54 1015.9
20260505140235 20 147 3.2 4.8 0.00 0.00 0.00 56 1015.9
20260505130158 16 200 3.2 3.2 0.00 0.00 0.00 64 1016.0
20260505124648 17 146 0.0 3.2 0.00 0.00 0.00 62 1016.0
20260505124145 17 162 0.0 1.6 0.00 0.00 0.00 66 1015.8
20260505123641 17 153 0.0 0.0 0.00 0.00 0.00 67 1015.9
20260505123138 16 129 0.0 1.6 0.00 0.00 0.00 69 1015.9
20260505122634 16 134 0.0 0.0 0.00 0.00 0.00 70 1015.7
20260505122132 15 146 0.0 0.0 0.00 0.00 0.00 72 1015.9
20260505121628 15 152 0.0 1.6 0.00 0.00 0.00 72 1015.7
20260505121125 16 110 1.6 1.6 0.00 0.00 0.00 71 1015.6
20260505120621 15 142 0.0 0.0 0.00 0.00 0.00 73 1015.6
20260505120117 14 135 0.0 0.0 0.00 0.00 0.00 76 1015.5
20260505115612 12 146 0.0 0.0 0.00 0.00 0.00 80 1015.4
20260505115109 11 131 0.0 1.6 0.00 0.00 0.00 82 1015.3
20260505114606 11 121 1.6 1.6 0.00 0.00 0.00 82 1015.2
20260505114103 11 132 1.6 1.6 0.00 0.00 0.00 82 1015.3
20260505113559 11 164 0.0 1.6 0.00 0.00 0.00 81 1015.5
20260505113056 11 164 0.0 0.0 0.00 0.00 0.00 82 1015.2
20260505112552 10 212 1.6 1.6 0.00 0.00 0.00 84 1015.0
20260505112051 10 124 0.0 0.0 0.00 0.00 0.00 85 1014.8
20260505111549 9 155 0.0 1.6 0.00 0.00 0.00 86 1014.7
20260505111046 10 148 0.0 0.0 0.00 0.00 0.00 85 1014.5
20260505110542 9 149 0.0 0.0 0.00 0.00 0.00 85 1014.3
20260505102015 11 123 0.0 1.6 0.00 0.00 0.00 77 1014.4
20260505101513 11 153 0.0 0.0 0.00 0.00 0.00 77 1014.4
20260505101010 11 148 0.0 1.6 0.00 0.00 0.00 75 1014.4
20260505100507 11 156 0.0 0.0 0.00 0.00 0.00 73 1014.4
20260505100003 11 153 0.0 0.0 0.00 0.00 0.00 73 1014.6
20260505095459 11 161 0.0 0.0 0.00 0.00 0.00 73 1014.6
20260505094955 12 159 0.0 0.0 0.00 0.00 0.00 72 1014.5
20260505094453 12 151 0.0 0.0 0.00 0.00 0.00 71 1014.4
20260505093949 12 150 0.0 0.0 0.00 0.00 0.00 69 1014.3
20260505093445 13 145 0.0 0.0 0.00 0.00 0.00 67 1014.3
20260505092943 13 156 0.0 0.0 0.00 0.00 0.00 66 1014.4
20260505092440 13 148 0.0 0.0 0.00 0.00 0.00 65 1014.5
20260505091938 13 237 1.6 3.2 0.00 0.00 0.00 65 1014.4
20260505091435 13 179 1.6 3.2 0.00 0.00 0.00 66 1014.3
20260505090933 13 141 0.0 0.0 0.00 0.00 0.00 66 1014.4
20260505090431 13 326 0.0 0.0 0.00 0.00 0.00 66 1014.3
20260505085928 13 162 0.0 1.6 0.00 0.00 0.00 65 1014.4
20260505085426 13 167 0.0 0.0 0.00 0.00 0.00 64 1014.5
20260505084924 14 138 0.0 3.2 0.00 0.00 0.00 64 1014.5
20260505084422 14 156 0.0 0.0 0.00 0.00 0.00 64 1014.5
20260505083920 14 176 1.6 3.2 0.00 0.00 0.00 62 1014.4
20260505083417 14 202 1.6 1.6 0.00 0.00 0.00 63 1014.5
20260505082913 15 177 1.6 1.6 0.00 0.00 0.00 62 1014.5
20260505082409 15 158 0.0 3.2 0.00 0.00 0.00 61 1014.2
20260505081906 15 164 0.0 6.4 0.00 0.00 0.00 61 1014.5
20260505081402 14 290 1.6 3.2 0.00 0.00 0.00 63 1014.5
20260505080859 14 205 1.6 1.6 0.00 0.00 0.00 64 1014.3
20260505080355 14 136 0.0 0.0 0.00 0.00 0.00 64 1014.4
20260505075851 15 157 0.0 1.6 0.00 0.00 0.00 63 1014.4
20260505075348 14 153 0.0 1.6 0.00 0.00 0.00 63 1014.4
20260505074845 15 194 1.6 3.2 0.00 0.00 0.00 62 1014.4
20260505074342 14 181 1.6 1.6 0.00 0.00 0.00 63 1014.3
20260505073839 13 152 0.0 3.2 0.00 0.00 0.00 64 1014.4
20260505073337 14 148 0.0 0.0 0.00 0.00 0.00 64 1014.4
20260505072834 14 145 0.0 0.0 0.00 0.00 0.00 64 1014.5
20260505072330 14 218 0.0 1.6 0.00 0.00 0.00 63 1014.4
20260505071826 15 183 0.0 0.0 0.00 0.00 0.00 63 1014.4
20260505071323 15 140 0.0 0.0 0.00 0.00 0.00 63 1014.5
20260505070821 15 153 0.0 1.6 0.00 0.00 0.00 61 1014.3
20260505070318 15 168 0.0 1.6 0.00 0.00 0.00 61 1014.4
20260505065812 15 157 0.0 3.2 0.00 0.00 0.00 60 1014.4
20260505065309 16 217 1.6 3.2 0.00 0.00 0.00 60 1014.5
20260505064807 16 161 3.2 6.4 0.00 0.00 0.00 59 1014.6
20260505064304 16 132 0.0 3.2 0.00 0.00 0.00 59 1014.6
20260505063802 16 154 0.0 1.6 0.00 0.00 0.00 60 1014.5
20260505063258 16 199 1.6 1.6 0.00 0.00 0.00 59 1014.7
20260505062754 16 157 0.0 3.2 0.00 0.00 0.00 59 1014.6
20260505062252 16 150 1.6 3.2 0.00 0.00 0.00 60 1014.5
20260505061748 16 149 0.0 0.0 0.00 0.00 0.00 59 1014.6
20260505061246 16 188 1.6 4.8 0.00 0.00 0.00 58 1014.7
20260505060743 16 194 3.2 4.8 0.00 0.00 0.00 58 1014.6
20260505060241 16 273 3.2 4.8 0.00 0.00 0.00 58 1014.6
20260505055735 16 276 3.2 4.8 0.00 0.00 0.00 58 1014.6
20260505055232 16 163 1.6 3.2 0.00 0.00 0.00 58 1014.5
20260505054730 16 163 3.2 6.4 0.00 0.00 0.00 58 1014.5
20260505054227 16 324 1.6 3.2 0.00 0.00 0.00 59 1014.4
20260505053726 16 183 0.0 3.2 0.00 0.00 0.00 59 1014.5
20260505053221 17 227 3.2 4.8 0.00 0.00 0.00 59 1014.5
20260505052719 17 228 1.6 6.4 0.00 0.00 0.00 58 1014.3
20260505052216 16 244 3.2 3.2 0.00 0.00 0.00 59 1014.4
20260505051713 17 164 1.6 3.2 0.00 0.00 0.00 59 1014.4
20260505051211 17 210 1.6 6.4 0.00 0.00 0.00 58 1014.4
20260505050709 17 240 4.8 4.8 0.00 0.00 0.00 59 1014.3
20260505050207 17 171 0.0 4.8 0.00 0.00 0.00 59 1014.2
20260505041636 16 151 0.0 3.2 0.00 0.00 0.00 61 1014.5
20260505041134 16 157 0.0 0.0 0.00 0.00 0.00 63 1014.3
20260505040630 16 149 0.0 0.0 0.00 0.00 0.00 63 1014.3
20260505040128 16 143 0.0 0.0 0.00 0.00 0.00 62 1014.4
20260505035624 16 179 0.0 1.6 0.00 0.00 0.00 61 1014.3
20260505035120 16 149 0.0 0.0 0.00 0.00 0.00 62 1014.3
20260505034617 16 166 0.0 1.6 0.00 0.00 0.00 61 1014.2
20260505034114 17 149 0.0 1.6 0.00 0.00 0.00 60 1014.4
20260505033611 17 170 0.0 1.6 0.00 0.00 0.00 59 1014.2
20260505033110 17 193 1.6 3.2 0.00 0.00 0.00 59 1014.3
20260505032607 16 159 0.0 0.0 0.00 0.00 0.00 60 1014.4
20260505032103 16 160 0.0 0.0 0.00 0.00 0.00 59 1014.3
20260505031601 16 150 0.0 0.0 0.00 0.00 0.00 59 1014.3
20260505031056 16 140 0.0 0.0 0.00 0.00 0.00 58 1014.2
20260505030554 17 156 0.0 1.6 0.00 0.00 0.00 58 1014.4
20260505030049 17 153 0.0 0.0 0.00 0.00 0.00 57 1014.4
20260505025545 17 145 0.0 0.0 0.00 0.00 0.00 56 1014.4
20260505025045 17 140 0.0 0.0 0.00 0.00 0.00 57 1014.5
20260505024541 17 153 0.0 0.0 0.00 0.00 0.00 57 1014.4
20260505024038 17 149 0.0 1.6 0.00 0.00 0.00 56 1014.4
20260505023535 17 230 1.6 3.2 0.00 0.00 0.00 56 1014.6
20260505023033 17 160 0.0 0.0 0.00 0.00 0.00 57 1014.5
20260505022530 17 142 0.0 1.6 0.00 0.00 0.00 57 1014.5
20260505022027 17 156 0.0 0.0 0.00 0.00 0.00 55 1014.4
20260505021524 17 167 0.0 0.0 0.00 0.00 0.00 55 1014.6
20260505021021 17 205 1.6 1.6 0.00 0.00 0.00 55 1014.5
20260505020520 17 157 0.0 0.0 0.00 0.00 0.00 56 1014.4
20260505020018 17 148 0.0 0.0 0.00 0.00 0.00 55 1014.4
20260505015515 18 152 0.0 0.0 0.00 0.00 0.00 54 1014.4
20260505015012 18 199 1.6 3.2 0.00 0.00 0.00 53 1014.3
20260505014509 18 158 0.0 3.2 0.00 0.00 0.00 54 1014.3
20260505014006 18 189 1.6 1.6 0.00 0.00 0.00 54 1014.5
20260505013503 18 200 1.6 3.2 0.00 0.00 0.00 54 1014.4
20260505013000 18 170 0.0 1.6 0.00 0.00 0.00 54 1014.3
20260505012458 18 165 0.0 0.0 0.00 0.00 0.00 54 1014.4
20260505011955 18 127 1.6 3.2 0.00 0.00 0.00 53 1014.2
20260505011450 18 163 0.0 1.6 0.00 0.00 0.00 54 1014.3
20260505010947 18 147 0.0 1.6 0.00 0.00 0.00 54 1014.2
20260505010443 19 153 0.0 1.6 0.00 0.00 0.00 54 1014.3
20260505005939 20 105 0.0 1.6 0.00 0.00 0.00 53 1014.1
20260505005436 20 165 1.6 3.2 0.00 0.00 0.00 53 1014.1
20260505004934 20 100 0.0 3.2 0.00 0.00 0.00 52 1014.1
20260505004430 20 177 1.6 1.6 0.00 0.00 0.00 53 1013.9
20260505003927 20 96 0.0 3.2 0.00 0.00 0.00 54 1014.0
20260505003425 20 155 0.0 3.2 0.00 0.00 0.00 54 1013.8
20260505002921 21 135 0.0 4.8 0.00 0.00 0.00 53 1013.8
20260505002417 21 152 0.0 3.2 0.00 0.00 0.00 53 1013.7
20260505001916 21 159 1.6 1.6 0.00 0.00 0.00 53 1013.9
20260505001413 21 158 1.6 3.2 0.00 0.00 0.00 53 1013.7
20260505000910 21 164 1.6 3.2 0.00 0.00 0.00 52 1013.8
20260505000408 21 161 1.6 4.8 0.00 0.00 0.00 53 1013.6
20260504235904 22 250 4.8 6.4 0.00 0.00 0.00 52 1013.6
20260504235401 22 173 3.2 6.4 0.00 0.00 0.00 51 1013.6
20260504234857 22 162 1.6 3.2 0.00 0.00 0.00 50 1013.7
20260504234355 22 228 4.8 6.4 0.00 0.00 0.00 50 1013.7
20260504233852 23 170 0.0 4.8 0.00 0.00 0.00 50 1013.6
20260504233347 23 148 3.2 4.8 0.00 0.00 0.00 50 1013.6
20260504232844 23 348 1.6 9.7 0.00 0.00 0.00 50 1013.7
20260504232341 23 171 1.6 11.3 0.00 0.00 0.00 49 1013.7
20260504231838 23 118 3.2 11.3 0.00 0.00 0.00 50 1013.7
20260504231334 23 207 1.6 4.8 0.00 0.00 0.00 49 1013.4
20260504230831 23 201 3.2 6.4 0.00 0.00 0.00 49 1013.7
20260504230329 23 162 1.6 3.2 0.00 0.00 0.00 48 1013.4
20260504225827 24 315 3.2 12.9 0.00 0.00 0.00 48 1013.6
20260504225323 25 202 4.8 6.4 0.00 0.00 0.00 47 1013.7
20260504224821 24 205 1.6 9.7 0.00 0.00 0.00 47 1013.6
20260504224318 24 210 8.0 12.9 0.00 0.00 0.00 47 1013.7
20260504223814 25 208 3.2 6.4 0.00 0.00 0.00 47 1013.6
20260504223310 25 235 1.6 6.4 0.00 0.00 0.00 48 1013.4
20260504222807 25 179 1.6 6.4 0.00 0.00 0.00 48 1013.7
20260504222305 24 169 1.6 3.2 0.00 0.00 0.00 48 1013.6
20260504221802 24 258 3.2 9.7 0.00 0.00 0.00 47 1013.7
20260504221258 24 212 3.2 6.4 0.00 0.00 0.00 47 1013.7
20260504220755 24 189 3.2 9.7 0.00 0.00 0.00 48 1013.8
20260504220252 25 210 1.6 3.2 0.00 0.00 0.00 47 1013.9
20260504215749 24 73 0.0 6.4 0.00 0.00 0.00 47 1013.8
20260504215246 23 143 3.2 9.7 0.00 0.00 0.00 46 1013.7
20260504214741 23 249 6.4 9.7 0.00 0.00 0.00 49 1013.6
20260504214238 24 159 1.6 9.7 0.00 0.00 0.00 47 1013.7
20260504213735 24 215 3.2 9.7 0.00 0.00 0.00 49 1013.8
20260504213231 25 177 6.4 11.3 0.00 0.00 0.00 47 1013.7
20260504212729 25 192 6.4 9.7 0.00 0.00 0.00 45 1013.9
20260504212225 25 204 1.6 6.4 0.00 0.00 0.00 50 1014.0
20260504211723 26 95 1.6 3.2 0.00 0.00 0.00 46 1013.7
20260504211219 26 187 8.0 9.7 0.00 0.00 0.00 43 1013.9
20260504210716 25 71 1.6 6.4 0.00 0.00 0.00 45 1013.9
20260504210213 25 178 4.8 9.7 0.00 0.00 0.00 46 1013.8
20260504205710 26 180 3.2 4.8 0.00 0.00 0.00 47 1014.0
20260504205208 25 132 3.2 9.7 0.00 0.00 0.00 49 1014.0
20260504204706 25 215 8.0 14.5 0.00 0.00 0.00 45 1014.0
20260504204204 25 172 1.6 3.2 0.00 0.00 0.00 46 1014.0
20260504203703 25 233 4.8 11.3 0.00 0.00 0.00 46 1014.1
20260504203200 26 179 1.6 4.8 0.00 0.00 0.00 44 1014.1
20260504202700 25 163 1.6 6.4 0.00 0.00 0.00 47 1014.2
20260504202158 25 205 3.2 4.8 0.00 0.00 0.00 45 1014.1
20260504201654 25 250 4.8 4.8 0.00 0.00 0.00 48 1014.4
20260504201152 25 220 3.2 9.7 0.00 0.00 0.00 48 1014.4
20260504200649 25 181 1.6 4.8 0.00 0.00 0.00 48 1014.2
20260504200145 25 167 4.8 11.3 0.00 0.00 0.00 46 1014.4
20260504195641 25 197 8.0 11.3 0.00 0.00 0.00 45 1014.6
20260504195138 25 244 4.8 6.4 0.00 0.00 0.00 51 1014.5
20260504194635 25 231 3.2 6.4 0.00 0.00 0.00 50 1014.7
20260504194131 25 235 3.2 9.7 0.00 0.00 0.00 46 1014.6
20260504193627 24 106 1.6 6.4 0.00 0.00 0.00 49 1014.9
20260504193126 25 242 4.8 6.4 0.00 0.00 0.00 47 1014.6
20260504192623 25 254 3.2 9.7 0.00 0.00 0.00 49 1014.8
20260504192121 25 162 4.8 6.4 0.00 0.00 0.00 46 1015.0
20260504191619 25 169 0.0 4.8 0.00 0.00 0.00 47 1015.1
20260504191115 25 137 3.2 9.7 0.00 0.00 0.00 48 1015.1
20260504190611 25 126 1.6 6.4 0.00 0.00 0.00 47 1015.3
20260504190108 24 153 0.0 4.8 0.00 0.00 0.00 48 1015.2
20260504185604 23 236 3.2 9.7 0.00 0.00 0.00 47 1015.4
20260504185101 23 252 6.4 9.7 0.00 0.00 0.00 48 1015.4
20260504184557 23 188 3.2 9.7 0.00 0.00 0.00 51 1015.7
20260504184052 25 176 3.2 3.2 0.00 0.00 0.00 49 1015.4
20260504183549 24 333 4.8 4.8 0.00 0.00 0.00 46 1015.4
20260504183047 23 233 4.8 14.5 0.00 0.00 0.00 48 1015.5
20260504182544 24 217 1.6 6.4 0.00 0.00 0.00 47 1015.7
20260504182042 23 261 8.0 12.9 0.00 0.00 0.00 48 1015.7
20260504181538 24 136 3.2 6.4 0.00 0.00 0.00 49 1015.8
20260504181037 23 212 3.2 6.4 0.00 0.00 0.00 49 1015.9
20260504180535 24 283 4.8 9.7 0.00 0.00 0.00 47 1015.7
20260504180034 23 174 6.4 6.4 0.00 0.00 0.00 46 1016.0
20260504175531 23 198 3.2 4.8 0.00 0.00 0.00 49 1016.0
20260504175028 23 144 3.2 6.4 0.00 0.00 0.00 51 1016.0
20260504174526 22 221 3.2 9.7 0.00 0.00 0.00 47 1016.3
20260504174022 23 254 6.4 9.7 0.00 0.00 0.00 50 1016.2
20260504173519 23 221 3.2 9.7 0.00 0.00 0.00 49 1016.2
20260504173016 23 193 1.6 3.2 0.00 0.00 0.00 49 1016.2
20260504172512 22 243 1.6 9.7 0.00 0.00 0.00 49 1016.3
20260504172009 23 137 4.8 4.8 0.00 0.00 0.00 49 1016.4
20260504171506 23 178 1.6 6.4 0.00 0.00 0.00 52 1016.3
20260504171002 22 196 4.8 9.7 0.00 0.00 0.00 49 1016.3
20260504170459 22 243 4.8 6.4 0.00 0.00 0.00 47 1016.7
20260504160419 20 260 4.8 4.8 0.00 0.00 0.00 53 1017.4